Regional Weather Roundup
Issued by NWS

Home | Current Version | Previous Version | Graphics & Text | Print | Product List | Glossary On
Versions: 1 2 3 4 5 6 7 8 9 10 11 12 13 14 15 16 17 18 19 20 21 22 23 24 25 26 27 28 29 30 31 32 33 34 35 36 37 38 39 40 41 42 43 44 45 46 47 48 49 50
000
ASUS44 KMEG 202210
RWRTN
TENNESSEE HOURLY STATE WEATHER ROUNDUP
NATIONAL WEATHER SERVICE MEMPHIS TN
400 PM CST SAT JAN 20 2018

TNZ002-004-019-021-049-052-054-088>092-202300-
WEST TENNESSEE

CITY           SKY/WX    TMP DP  RH WIND       PRES   REMARKS
MEMPHIS INTL   CLOUDY    60  49  66 S12       30.10S
JACKSON        CLOUDY    58  45  62 S6        30.11F
DYERSBURG      CLOUDY    53  45  74 S7        30.09S
SOMERVILLE     CLOUDY    61  46  59 S8G15     30.09F
COVINGTON      CLOUDY    57  50  77 S8        30.10S
UNION CITY     CLOUDY    48  37  66 S7        30.08F
BOLIVAR        CLOUDY    61  46  59 S7        30.11S
PARIS          CLOUDY    50  37  62 S8        30.10R
HUNTINGDON     CLOUDY    55  41  58 S10       30.10S
LEXINGTON      CLOUDY    61  45  55 S8        30.13R
SELMER         CLOUDY    61  45  55 S7        30.13R
SAVANNAH       SUNNY     64  45  48 SW10      30.14R
$$

TNZ008-025-027-028-033-062-065-066-202300-
NORTH MIDDLE TENNESSEE

CITY           SKY/WX    TMP DP  RH WIND       PRES   REMARKS
NASHVILLE      FAIR      63  31  30 S14       30.14S
PORTLAND       MOCLDY    59  37  44 S10       30.13R
CLARKSVILLE    CLOUDY    55  42  61 S8        30.11R
SMYRNA         FAIR      63  32  31 S9        30.15F
COOKEVILLE     PTCLDY    57  34  41 SW8       30.17R
GALLATIN       CLEAR     63  32  31 S9G17     30.15F
CROSSVILLE     FAIR      54  35  48 SW3       30.19R
$$

TNZ061-075-076-078-094-096-097-202300-
SOUTH MIDDLE TENNESSEE

CITY           SKY/WX    TMP DP  RH WIND       PRES   REMARKS
FAYETTEVILLE   SUNNY     61  36  39 S8        30.17S
TULLAHOMA      SUNNY     59  34  38 S9        30.17S
WINCHESTER     PTSUNNY   59  36  41 W5        30.19S
MCMINNVILLE    PTCLDY    59  32  36 S5        30.17S
COLUMBIA       SUNNY     63  36  36 S12       30.13R
SHELBYVILLE    SUNNY     61  36  39 S10       30.17S
$$

TNZ017-018-042-046-047-202300-
NORTHEAST TENNESSEE

CITY           SKY/WX    TMP DP  RH WIND       PRES   REMARKS
TRI CITIES     CLOUDY    51  37  58 W5        30.20R
ELIZABETHTON   CLOUDY    52  37  58 NW6       30.20R
$$

TNZ012-013-036-069-073-074-202300-
CENTRAL EAST TENNESSEE

CITY           SKY/WX    TMP DP  RH WIND       PRES   REMARKS
KNOXVILLE      MOCLDY    57  38  48 S8        30.18R
OAK RIDGE      FAIR      58  32  37 VRB3      30.20R
DOWNTOWN KNOXV CLEAR     57  36  44 W3        30.19S
GATLINBURG     PTCLDY    59  39  47 NW6       30.18S
MORRISTOWN     PTCLDY    55  34  44 NW5       30.18S
JACKSBORO      CLOUDY    55  32  41 CALM      30.22R
$$

TNZ083-085-099-202300-
SOUTHEAST TENNESSEE

CITY           SKY/WX    TMP DP  RH WIND       PRES   REMARKS
CHATTANOOGA    FAIR      61  36  39 SW8       30.20R
DAYTON         CLEAR     59  37  44 SW5       30.19R
$$

SKY/WX REPORTED AS FAIR MEANS FEW OR NO CLOUDS BELOW
12 THOUSAND FEET.





USA.gov is the U.S. government's official web portal to all federal, state and local government web resources and services.